sat.trackr.live / text

‹ back to catalog

STARLINK-32699

NORAD 62482 · 2024-254W

PAYLOAD ACTIVE UNKNOWN

§ Identity

Operator
Country
US
Launch date
2024-12-31
Launch site
AFETR
Launch vehicle
Mass (kg)
RCS (m²)

Purposes: comms

External: N2YO · Heavens-Above · Gunter

§ Orbital elements

Epoch: 2026-05-25T04:15:07.588224Z

Period
94.27 min
Inclination
43.0035°
Eccentricity
0.0002487
Mean motion
15.27584576 rev/d
Perigee alt
481.3 km
Apogee alt
484.7 km
Semi-major
6,861.2 km
B*
6.4067e-4
RAAN
307.6226°
Arg perigee
271.1468°
Mean anomaly
88.9098°
Rev number
7,916

§ Raw data

STARLINK-326991 62482U 24254W   26145.17717116  .00017412  00000+0  64067-3 0  99982 62482  43.0035 307.6226 0002487 271.1468  88.9098 15.27584576 79160

JSON: /api/v1/satellites/62482 · /tle

For live sub-satellite position, see the globe view (requires WebGL).

§ Visibility from observer

Set your observer location to see the next 7 days of passes ≥ 10°. The values pass through the URL so the page stays shareable.

No JS? Fill the form by hand. The geolocation button needs JavaScript.